WZZ2MK EDDK-EDDN

Flight info

Callsign WZZ2MK
Flight time N/A
Altitude 23000
Route KUMIK4X KUMIK L603 TESGA Z719 ETOLU Z723 KOMIB T193 ERTES T194 DODAS DODAS1T
Aircraft A320/M-SDE3FGHIRWY/LB1

Departure

Time 2026-04-25 05:37
Airport Cologne Bonn Airport (EDDK)

Arrival

Time N/A
Airport Nuremberg Airport (EDDN)
Time Latitude Longitude Altitude Speed Heading
2026-04-25 05:07 50.87979 7.12368 234 ft 0 kts 216°
2026-04-25 05:28 50.87987 7.12377 232 ft 2 kts 212°
2026-04-25 05:28 50.88001 7.12392 232 ft 2 kts 213°
2026-04-25 05:28 50.88015 7.12406 235 ft 2 kts 212°
2026-04-25 05:29 50.88029 7.12419 235 ft 2 kts 206°
2026-04-25 05:29 50.88044 7.12429 235 ft 2 kts 175°
2026-04-25 05:29 50.88057 7.12421 237 ft 1 kts 122°
2026-04-25 05:29 50.88058 7.12417 237 ft 0 kts 122°
2026-04-25 05:30 50.88051 7.12434 235 ft 4 kts 122°
2026-04-25 05:30 50.88033 7.12485 232 ft 7 kts 120°
2026-04-25 05:31 50.88001 7.12572 232 ft 11 kts 118°
2026-04-25 05:31 50.87988 7.12708 234 ft 13 kts 83°
2026-04-25 05:31 50.88000 7.12784 237 ft 1 kts 73°
2026-04-25 05:31 50.88001 7.12790 237 ft 0 kts 73°
2026-04-25 05:32 50.88002 7.12794 238 ft 0 kts 73°
2026-04-25 05:32 50.88004 7.12805 238 ft 2 kts 73°
2026-04-25 05:32 50.88007 7.12824 238 ft 3 kts 78°
2026-04-25 05:33 50.88007 7.12828 238 ft 4 kts 80°
2026-04-25 05:36 50.88009 7.12839 239 ft 4 kts 81°
2026-04-25 05:36 50.88014 7.12898 239 ft 7 kts 85°
2026-04-25 05:36 50.87979 7.13007 239 ft 27 kts 134°
2026-04-25 05:37 50.87635 7.13508 239 ft 104 kts 137°
2026-04-25 05:37 50.86957 7.14505 260 ft 159 kts 137°
2026-04-25 05:37 50.86071 7.15777 664 ft 175 kts 139°
2026-04-25 05:37 50.85126 7.17064 1373 ft 183 kts 135°
2026-04-25 05:38 50.84300 7.18618 2128 ft 185 kts 122°
2026-04-25 05:38 50.83642 7.20402 2731 ft 198 kts 123°
2026-04-25 05:38 50.82629 7.22111 3076 ft 228 kts 129°
2026-04-25 05:38 50.81748 7.24368 3392 ft 256 kts 107°
2026-04-25 05:39 50.81325 7.27163 3731 ft 267 kts 97°
2026-04-25 05:39 50.81027 7.30070 4739 ft 269 kts 96°
2026-04-25 05:39 50.80847 7.32055 5438 ft 272 kts 95°
2026-04-25 05:39 50.80509 7.35986 6732 ft 278 kts 95°
2026-04-25 05:40 50.80332 7.38046 7345 ft 281 kts 96°
2026-04-25 05:40 50.80153 7.40092 7954 ft 285 kts 96°
2026-04-25 05:40 50.80117 7.40494 8074 ft 285 kts 96°